SCP
0 0 0 0 0 0 0 0 0 0 0 0 0 0 0 0 0 0 0 0 0 0 0 0 0 0 0 0 0 0 0 0 0 0 0 0 0 0 0 0 0 0 0 0
0 0 0 0 0 0 0 0 0 0 0 0 0 0 0 0 0 0 0 0 0 0 0 0 0 0 0 0 0 0 0 0 0 0 0 0 0 0 0 0 0 0 0 0
0 0 0 0 0 0 0 0 0 0 0 0 0 0 0 0 0 0 0 0 0 0 0 0 0 0 0 0 0 0 0 0 0 0 0 0 0 0 0 0 0 0 0 0
0 0 0 0 0 0 0 0 0 0 0 0 0 0 0 0 0 0 0 0 0 0 0 0 0 0 0 0 0 0 0 0 0 0 0 0 0 0 0 0 0 0 0 0
0 0 0 0 0 0 0 0 0 0 0 0 0 0 0 0 0 0 0 0 0 0 0 0 -0 0 0 0 0 0 0 0 0 0 0 0 0 0 0 0 0 0 0 0
-0 0 0 0 0 0 0 0 0 0 0 0 0 0 0 0 0 0 0 0 0 -0 -0 -0 -0 -0 -0 0 0 0 0 0 0 0 0 0 0 0 0 0 0 0 0 0
0 0 0 0 0 0 0 0 0 0 0 0 0 0 0 0 0 0 0 0 -0 -0 -0 -0 -0 -0 -0 -0 -0 0 0 0 0 0 0 0 0 0 0 0 0 0 0 0
0 0 0 0 0 0 -0 -0 0 0 0 0 0 0 0 0 0 0 0 0 0 0 -0 -0 -0 -0 -0 -0 0 0 0 0 0 0 0 0 0 0 0 0 0 0 0 0
0 0 0 0 0 -0 -0 0 -0 0 -0 -0 -0 -0 0 0 0 0 0 0 0 0 -0 -0 -0 -0 -0 0 0 0 0 0 0 0 0 0 0 0 0 0 0 0 0 0
0 -0 -0 -0 -0 -0 -0 -0 -0 -0 -0 -0 -0 -0 -0 -0 -0 -0 -0 0 0 -0 -0 -0 -0 -0 0 -0 -0 0 0 0 0 0 0 0 0 0 0 0 0 0 0 0
-0 -0 -0 -0 -0 -0 -0 -0 -0 -0 -0 -0 -0 -0 -0 -0 -0 -0 -0 0 0 -0 -0 -0 0 0 0 -0 -0 0 0 0 0 0 0 0 0 -0 -0 -0 0 -0 -0 0
-0 0 -0 -0 0 0 0 0 0 0 -0 -0 -0 -0 -0 -0 -0 -0 -0 -0 0 0 0 0 0 0 0 0 0 0 0 0 0 0 0 0 0 0 0 0 0 0 0 0
-0 0 -0 0 0 0 0 0 0 0 0 0 -0 0 0 0 0 0 0 0 0 0 0 0 0 0 0 0 0 0 0 0 0 0 0 0 0 0 0 0 0 0 0 0
-0 -0 0 0 -0 -0 0 0 0 0 0 0 0 0 0 0 0 0 0 0 0 0 0 0 0 0 0 0 0 0 0 0 0 0 0 0 0 0 0 0 0 0 0 0
0 0 0 -0 -0 -0 0 0 0 0 0 0 0 0 0 0 0 0 0 0 0 0 0 0 0 0 0 0 0 0 0 0 0 0 -0 -0 0 0 0 0 0 0 0 0
0 0 0 -0 -0 -0 0 0 0 0 0 0 0 0 0 0 0 0 0 0 0 0 0 0 0 0 0 0 0 0 0 0 0 0 0 0 0 0 0 0 0 0 0 0
0 0 0 0 -0 -0 -0 -0 -0 -0 -0 -0 0 0 0 0 0 0 0 0 0 0 0 0 0 0 0 0 0 0 0 0 0 0 0 0 0 0 0 0 0 0 0 0
0 0 -0 -0 -0 -0 -0 -0 -0 -0 -0 -0 -0 -0 0 0 0 0 0 0 0 0 0 0 0 0 0 0 0 0 0 0 0 0 0 0 0 0 0 0 0 0 0 0
0 0 -0 -0 -0 -0 -0 -0 -0 -0 -0 -0 -0 -0 0 0 0 0 0 0 0 0 0 0 0 0 0 0 0 0 0 0 0 0 0 0 0 0 0 0 0 0 0 0
0 0 0 0 0 0 0 0 0 0 0 0 0 0 0 0 0 0 0 0 0 0 0 0 0 0 0 0 0 0 0 0 0 0 0 0 0 0 0 0 0 0 0 0
0 0 0 0 0 0 0 0 0 0 0 0 0 0 0 0 0 0 0 0 0 0 0 0 0 0 0 0 0 0 0 0 0 0 0 0 0 0 0 0 0 0 0 0
0 0 0 0 0 0 0 0 0 0 0 0 0 0 0 0 0 0 0 0 0 0 0 0 0 0 0 0 0 0 0 0 0 0 0 0 0 0 0 0 0 0 0 0
0 0 0 0 0 0 0 0 0 0 0 0 0 0 0 0 0 0 0 0 0 0 0 0 0 0 0 0 0 0 0 0 0 0 0 0 0 0 0 0 0 0 0 0
0 0 0 0 0 0 0 0 0 0 0 0 0 0 0 0 0 0 0 0 0 0 0 0 0 0 0 0 0 0 0 0 0 0 0 0 0 0 0 0 0 0 0 0
0 0 0 0 0 0 0 0 0 0 0 0 0 0 0 0 0 0 0 0 0 0 0 0 0 0 0 0 0 0 0 0 0 0 0 0 0 0 0 0 0 0 0 0
0 0 0 0 0 0 0 0 0 0 0 0 0 0 0 0 0 0 0 0 0 0 0 0 0 0 0 0 0 0 0 0 0 0 0 0 0 0 0 0 0 0 0 0
0 0 0 0 0 0 0 0 0 0 0 0 0 0 0 0 0 0 0 0 0 0 0 0 0 0 0 0 0 0 0 0 0 0 0 0 0 0 0 0 0 0 0 0
Wind_Speed_500mb
9 15 2 34 29 39 36 30 13 20 26 40 43 40 47 54 72 84 85 91 82 83 96 90 89 84 80 76 74 71 71 68 69 63 58 57 58 57 53 52 50 47 44 42
7 1 1 25 41 33 32 34 15 22 28 37 51 51 60 74 74 79 80 76 82 100 97 97 96 92 88 85 84 81 83 82 75 69 67 64 60 58 53 50 47 44 45 42
9 7 9 8 39 24 21 32 16 20 19 28 32 46 72 69 72 72 74 76 88 99 102 98 96 91 90 85 79 81 80 75 70 65 64 61 57 53 53 51 49 53 54 51
6 10 17 8 23 6 9 42 42 27 27 23 16 49 75 81 74 77 77 84 94 95 97 94 88 84 81 78 77 74 73 68 62 58 61 57 54 54 50 49 51 52 53 53
7 8 6 4 20 14 11 23 40 36 36 47 18 30 80 76 73 71 79 86 91 90 90 87 87 80 79 80 76 73 71 67 62 58 59 56 56 54 54 50 51 52 50 48
8 11 9 7 29 31 3 23 49 51 46 49 40 29 14 55 68 76 85 88 88 87 85 85 87 80 81 82 77 77 69 65 60 57 56 56 55 54 52 50 51 49 48 49
9 6 6 5 45 9 12 3 30 40 39 41 21 16 22 49 66 75 80 81 80 79 84 82 76 72 79 75 76 68 60 57 55 55 55 53 51 50 48 47 46 46 45 45
4 10 8 49 9 12 4 4 11 21 23 26 31 36 46 56 63 68 73 74 74 76 77 74 70 66 72 74 62 55 51 51 54 55 54 51 49 50 48 46 45 45 43 43
3 7 6 14 13 7 7 3 4 5 7 16 26 36 43 51 58 62 65 66 65 67 67 66 63 63 68 65 55 53 53 57 55 52 50 48 47 46 45 44 46 47 47 47
4 6 4 2 1 1 2 6 8 10 13 22 31 37 45 49 53 55 56 57 57 58 63 65 61 60 62 55 50 48 52 53 51 49 48 47 46 47 46 47 48 50 52 54
2 5 7 13 11 9 12 13 15 18 21 26 31 37 41 45 47 49 50 50 50 53 56 59 56 56 53 48 44 45 48 48 48 48 49 49 51 52 51 51 51 52 56 58
9 27 10 14 25 22 21 20 19 21 27 28 29 35 38 43 44 44 44 45 46 50 52 54 51 52 50 44 41 42 47 49 49 47 47 46 45 43 45 46 46 47 49 51
15 36 20 27 27 26 24 24 25 25 26 30 33 33 34 38 39 38 40 40 41 42 44 43 43 44 44 39 34 36 41 42 41 41 41 41 40 39 37 38 43 49 54 59
34 46 30 40 27 34 28 27 28 28 28 29 29 30 29 31 34 32 33 34 34 35 36 35 34 35 36 33 28 31 34 36 38 41 43 41 39 40 44 49 54 56 58 65
51 44 34 41 36 40 38 37 37 35 35 35 34 29 28 28 30 30 29 30 29 29 29 29 27 28 29 29 25 26 28 32 37 39 41 43 44 47 52 57 62 67 73 76
61 45 39 47 47 47 47 46 43 42 42 41 38 37 34 30 27 26 27 27 24 23 24 24 21 22 24 24 20 21 26 32 37 41 45 49 53 56 59 63 67 72 78 83
74 50 51 57 61 59 55 48 44 42 44 43 40 39 36 32 27 22 21 20 19 16 16 16 14 15 17 15 15 17 24 29 34 41 47 52 56 59 62 66 71 75 77 82
71 60 66 66 70 64 61 55 51 48 45 43 43 40 36 30 21 21 21 22 22 20 18 15 13 13 12 8 6 12 20 28 35 41 47 52 58 63 66 70 74 78 83 86
72 60 52 52 59 58 58 60 57 50 48 48 45 41 35 34 29 26 25 23 22 20 18 15 12 10 8 2 6 14 22 29 36 41 49 56 61 65 70 74 78 81 86 90
65 63 51 52 53 59 58 56 55 54 53 50 47 48 46 41 35 31 26 21 19 18 14 12 9 7 4 6 10 16 23 31 38 46 54 60 66 72 75 77 80 86 88 87
70 62 56 53 55 56 57 53 56 58 54 52 51 47 40 38 37 34 29 21 17 15 14 13 12 13 13 13 15 20 27 34 42 51 58 66 72 75 77 78 81 85 85 82
78 68 64 57 58 57 59 58 56 56 55 53 50 48 47 46 41 34 29 25 21 19 20 22 21 19 18 19 22 25 31 38 45 52 59 66 72 76 77 79 84 87 83 77
75 71 66 64 62 58 58 60 57 57 56 55 54 54 51 42 37 35 28 26 24 24 28 28 26 24 23 23 25 28 32 39 47 54 61 67 72 75 76 82 85 82 76 70
67 66 62 59 60 63 66 64 61 60 57 53 51 48 46 45 43 39 36 31 29 29 33 31 30 27 26 27 28 30 35 42 49 56 62 68 71 72 76 82 82 74 68 63
63 61 63 65 66 65 62 61 63 64 63 60 58 55 50 48 42 36 36 34 32 32 33 32 31 30 30 29 30 33 38 44 51 58 65 69 69 72 78 80 74 68 62 56
63 65 64 63 64 62 61 63 64 64 65 65 64 60 57 52 50 46 40 37 34 33 31 31 32 32 31 31 33 36 41 46 53 59 65 66 68 74 78 76 66 62 57 53
60 62 63 64 67 65 63 65 65 65 64 62 59 57 55 52 51 47 41 36 33 31 30 31 31 31 31 32 35 39 43 48 55 60 62 64 69 75 75 69 61 58 51 48
Wind_Direction_500mb
310 150 309 34 13 15 23 8 37 322 25 8 359 350 359 33 52 60 61 63 67 71 82 83 90 93 94 95 94 94 92 89 87 88 87 86 86 84 85 83 81 82 82 81
306 42 253 26 21 15 19 8 353 1 38 359 2 12 26 34 42 51 56 61 68 77 86 87 90 91 93 94 93 94 91 90 91 90 89 88 88 85 83 82 80 76 70 68
303 302 280 357 15 14 23 28 351 17 326 335 10 22 25 24 37 45 52 59 69 80 87 89 92 94 93 94 94 91 91 91 91 92 90 88 87 85 81 78 74 68 65 62
281 5 38 306 20 352 6 29 18 9 357 355 54 45 38 34 42 49 58 69 80 87 91 93 94 94 97 94 90 88 88 87 85 83 83 82 79 76 74 70 66 65 63 63
67 0 172 35 4 354 7 28 14 3 360 1 39 61 39 39 60 65 75 82 85 89 91 93 92 92 91 87 86 86 82 82 82 81 82 82 78 75 71 68 66 63 62 61
18 65 57 262 336 335 272 33 7 5 6 4 19 59 17 43 68 76 81 85 87 88 90 90 90 91 89 88 86 84 84 84 82 80 77 74 73 71 69 65 64 63 60 57
1 62 317 347 323 322 53 252 358 3 13 23 45 51 55 71 76 80 84 86 90 92 89 88 87 86 83 82 79 82 83 82 80 77 74 74 73 71 68 67 66 63 58 54
2 42 17 356 354 72 136 60 13 19 42 59 80 84 82 83 84 87 87 88 86 86 86 86 85 83 84 82 84 83 82 81 82 81 80 78 74 72 67 61 56 52 46 42
139 209 289 8 68 65 102 144 58 67 73 93 92 90 89 89 90 89 89 89 89 89 89 86 84 83 83 86 89 88 86 82 79 78 77 74 67 62 57 50 44 39 34 30
93 250 271 225 40 35 115 165 150 133 122 115 106 104 100 98 96 95 94 93 92 91 87 85 82 81 83 88 87 85 83 81 77 72 66 60 56 52 45 42 38 34 30 26
289 283 268 253 213 190 161 152 145 141 136 130 125 116 110 105 101 96 92 91 90 89 89 89 89 87 86 85 85 85 83 80 74 67 60 52 45 42 39 38 33 28 25 19
209 184 153 172 178 173 166 155 153 153 147 140 133 124 120 111 105 102 99 97 95 93 95 98 98 95 91 86 79 75 75 70 63 56 50 46 42 40 38 34 28 23 17 9
172 169 172 163 171 175 174 170 168 165 161 153 147 139 127 119 114 110 104 100 98 98 96 97 95 94 90 84 77 73 70 66 58 50 43 38 34 33 33 31 21 13 8 2
175 164 158 176 183 180 179 181 175 170 164 159 154 143 137 129 121 115 111 109 105 103 104 103 101 98 94 88 81 75 69 61 48 40 36 32 29 26 19 12 9 6 3 357
177 184 191 180 178 180 181 187 184 179 176 170 165 160 153 144 133 129 125 118 117 120 119 116 110 104 101 96 83 69 60 52 44 37 32 28 23 16 11 6 2 357 353 353
180 187 187 190 187 187 186 187 190 184 182 179 174 170 166 160 151 142 131 126 127 127 121 117 114 108 104 98 86 66 52 43 35 28 22 18 12 7 2 360 356 353 352 349
175 182 187 194 193 192 195 196 193 191 186 186 183 182 177 173 166 152 140 134 138 144 135 135 133 118 113 105 80 54 40 30 22 16 12 8 4 1 357 354 352 350 348 346
202 203 200 201 194 194 194 194 195 196 196 189 191 189 188 185 180 172 168 166 168 172 164 158 154 144 139 128 79 38 22 12 7 4 2 0 359 355 352 350 348 346 344 343
205 210 209 209 207 202 200 198 198 198 195 198 198 198 191 190 190 193 191 185 178 174 174 174 177 161 154 138 4 8 1 357 354 352 353 353 351 350 349 347 345 344 343 342
204 209 212 212 208 208 207 206 205 201 201 202 199 200 200 200 199 200 200 194 187 191 192 209 214 228 242 287 326 334 334 334 339 346 347 346 346 347 346 343 343 343 342 343
205 209 210 208 208 208 211 215 212 209 206 205 208 210 209 208 206 207 208 212 214 219 224 238 253 259 266 277 296 303 313 327 337 340 342 343 343 342 341 341 342 342 342 343
203 209 210 211 209 210 210 212 215 215 212 212 209 207 210 212 213 213 214 215 222 227 232 240 246 251 258 270 284 296 312 325 332 334 337 338 339 339 339 340 342 341 342 343
206 209 211 211 213 214 215 215 215 215 217 217 216 215 217 218 221 223 228 228 232 230 234 238 241 248 261 274 286 297 310 321 325 330 333 335 336 336 337 340 340 339 340 341
210 212 214 213 214 214 214 215 216 216 216 217 219 220 221 217 216 219 225 230 232 234 235 238 241 251 264 275 286 299 310 317 323 327 329 333 334 334 337 338 338 338 339 339
214 216 216 216 218 219 218 219 217 215 213 212 213 215 216 215 218 223 225 228 232 234 236 240 245 253 263 276 288 299 308 315 321 325 329 331 331 334 337 337 336 336 338 339
216 219 222 225 226 225 223 222 221 220 217 215 215 215 216 216 219 222 223 226 231 234 236 242 248 255 265 277 288 298 307 315 320 325 328 328 331 334 335 335 335 335 337 340
218 223 225 225 225 225 225 226 225 223 222 222 223 221 219 219 220 221 223 226 230 235 242 245 249 256 265 276 288 299 308 315 321 325 326 328 332 333 333 334 334 334 336 339
Wind_Speed_850mb
9 15 2 34 29 39 36 30 13 20 26 40 43 40 47 54 72 84 85 91 82 83 96 90 89 84 80 76 74 71 71 68 69 63 58 57 58 57 53 52 50 47 44 42
7 1 1 25 41 33 32 34 15 22 28 37 51 51 60 74 74 79 80 76 82 100 97 97 96 92 88 85 84 81 83 82 75 69 67 64 60 58 53 50 47 44 45 42
9 7 9 8 39 24 21 32 16 20 19 28 32 46 72 69 72 72 74 76 88 99 102 98 96 91 90 85 79 81 80 75 70 65 64 61 57 53 53 51 49 53 54 51
6 10 17 8 23 6 9 42 42 27 27 23 16 49 75 81 74 77 77 84 94 95 97 94 88 84 81 78 77 74 73 68 62 58 61 57 54 54 50 49 51 52 53 53
7 8 6 4 20 14 11 23 40 36 36 47 18 30 80 76 73 71 79 86 91 90 90 87 87 80 79 80 76 73 71 67 62 58 59 56 56 54 54 50 51 52 50 48
8 11 9 7 29 31 3 23 49 51 46 49 40 29 14 55 68 76 85 88 88 87 85 85 87 80 81 82 77 77 69 65 60 57 56 56 55 54 52 50 51 49 48 49
9 6 6 5 45 9 12 3 30 40 39 41 21 16 22 49 66 75 80 81 80 79 84 82 76 72 79 75 76 68 60 57 55 55 55 53 51 50 48 47 46 46 45 45
4 10 8 49 9 12 4 4 11 21 23 26 31 36 46 56 63 68 73 74 74 76 77 74 70 66 72 74 62 55 51 51 54 55 54 51 49 50 48 46 45 45 43 43
3 7 6 14 13 7 7 3 4 5 7 16 26 36 43 51 58 62 65 66 65 67 67 66 63 63 68 65 55 53 53 57 55 52 50 48 47 46 45 44 46 47 47 47
4 6 4 2 1 1 2 6 8 10 13 22 31 37 45 49 53 55 56 57 57 58 63 65 61 60 62 55 50 48 52 53 51 49 48 47 46 47 46 47 48 50 52 54
2 5 7 13 11 9 12 13 15 18 21 26 31 37 41 45 47 49 50 50 50 53 56 59 56 56 53 48 44 45 48 48 48 48 49 49 51 52 51 51 51 52 56 58
9 27 10 14 25 22 21 20 19 21 27 28 29 35 38 43 44 44 44 45 46 50 52 54 51 52 50 44 41 42 47 49 49 47 47 46 45 43 45 46 46 47 49 51
15 36 20 27 27 26 24 24 25 25 26 30 33 33 34 38 39 38 40 40 41 42 44 43 43 44 44 39 34 36 41 42 41 41 41 41 40 39 37 38 43 49 54 59
34 46 30 40 27 34 28 27 28 28 28 29 29 30 29 31 34 32 33 34 34 35 36 35 34 35 36 33 28 31 34 36 38 41 43 41 39 40 44 49 54 56 58 65
51 44 34 41 36 40 38 37 37 35 35 35 34 29 28 28 30 30 29 30 29 29 29 29 27 28 29 29 25 26 28 32 37 39 41 43 44 47 52 57 62 67 73 76
61 45 39 47 47 47 47 46 43 42 42 41 38 37 34 30 27 26 27 27 24 23 24 24 21 22 24 24 20 21 26 32 37 41 45 49 53 56 59 63 67 72 78 83
74 50 51 57 61 59 55 48 44 42 44 43 40 39 36 32 27 22 21 20 19 16 16 16 14 15 17 15 15 17 24 29 34 41 47 52 56 59 62 66 71 75 77 82
71 60 66 66 70 64 61 55 51 48 45 43 43 40 36 30 21 21 21 22 22 20 18 15 13 13 12 8 6 12 20 28 35 41 47 52 58 63 66 70 74 78 83 86
72 60 52 52 59 58 58 60 57 50 48 48 45 41 35 34 29 26 25 23 22 20 18 15 12 10 8 2 6 14 22 29 36 41 49 56 61 65 70 74 78 81 86 90
65 63 51 52 53 59 58 56 55 54 53 50 47 48 46 41 35 31 26 21 19 18 14 12 9 7 4 6 10 16 23 31 38 46 54 60 66 72 75 77 80 86 88 87
70 62 56 53 55 56 57 53 56 58 54 52 51 47 40 38 37 34 29 21 17 15 14 13 12 13 13 13 15 20 27 34 42 51 58 66 72 75 77 78 81 85 85 82
78 68 64 57 58 57 59 58 56 56 55 53 50 48 47 46 41 34 29 25 21 19 20 22 21 19 18 19 22 25 31 38 45 52 59 66 72 76 77 79 84 87 83 77
75 71 66 64 62 58 58 60 57 57 56 55 54 54 51 42 37 35 28 26 24 24 28 28 26 24 23 23 25 28 32 39 47 54 61 67 72 75 76 82 85 82 76 70
67 66 62 59 60 63 66 64 61 60 57 53 51 48 46 45 43 39 36 31 29 29 33 31 30 27 26 27 28 30 35 42 49 56 62 68 71 72 76 82 82 74 68 63
63 61 63 65 66 65 62 61 63 64 63 60 58 55 50 48 42 36 36 34 32 32 33 32 31 30 30 29 30 33 38 44 51 58 65 69 69 72 78 80 74 68 62 56
63 65 64 63 64 62 61 63 64 64 65 65 64 60 57 52 50 46 40 37 34 33 31 31 32 32 31 31 33 36 41 46 53 59 65 66 68 74 78 76 66 62 57 53
60 62 63 64 67 65 63 65 65 65 64 62 59 57 55 52 51 47 41 36 33 31 30 31 31 31 31 32 35 39 43 48 55 60 62 64 69 75 75 69 61 58 51 48
Wind_Direction_850mb
310 150 309 34 13 15 23 8 37 322 25 8 359 350 359 33 52 60 61 63 67 71 82 83 90 93 94 95 94 94 92 89 87 88 87 86 86 84 85 83 81 82 82 81
306 42 253 26 21 15 19 8 353 1 38 359 2 12 26 34 42 51 56 61 68 77 86 87 90 91 93 94 93 94 91 90 91 90 89 88 88 85 83 82 80 76 70 68
303 302 280 357 15 14 23 28 351 17 326 335 10 22 25 24 37 45 52 59 69 80 87 89 92 94 93 94 94 91 91 91 91 92 90 88 87 85 81 78 74 68 65 62
281 5 38 306 20 352 6 29 18 9 357 355 54 45 38 34 42 49 58 69 80 87 91 93 94 94 97 94 90 88 88 87 85 83 83 82 79 76 74 70 66 65 63 63
67 0 172 35 4 354 7 28 14 3 360 1 39 61 39 39 60 65 75 82 85 89 91 93 92 92 91 87 86 86 82 82 82 81 82 82 78 75 71 68 66 63 62 61
18 65 57 262 336 335 272 33 7 5 6 4 19 59 17 43 68 76 81 85 87 88 90 90 90 91 89 88 86 84 84 84 82 80 77 74 73 71 69 65 64 63 60 57
1 62 317 347 323 322 53 252 358 3 13 23 45 51 55 71 76 80 84 86 90 92 89 88 87 86 83 82 79 82 83 82 80 77 74 74 73 71 68 67 66 63 58 54
2 42 17 356 354 72 136 60 13 19 42 59 80 84 82 83 84 87 87 88 86 86 86 86 85 83 84 82 84 83 82 81 82 81 80 78 74 72 67 61 56 52 46 42
139 209 289 8 68 65 102 144 58 67 73 93 92 90 89 89 90 89 89 89 89 89 89 86 84 83 83 86 89 88 86 82 79 78 77 74 67 62 57 50 44 39 34 30
93 250 271 225 40 35 115 165 150 133 122 115 106 104 100 98 96 95 94 93 92 91 87 85 82 81 83 88 87 85 83 81 77 72 66 60 56 52 45 42 38 34 30 26
289 283 268 253 213 190 161 152 145 141 136 130 125 116 110 105 101 96 92 91 90 89 89 89 89 87 86 85 85 85 83 80 74 67 60 52 45 42 39 38 33 28 25 19
209 184 153 172 178 173 166 155 153 153 147 140 133 124 120 111 105 102 99 97 95 93 95 98 98 95 91 86 79 75 75 70 63 56 50 46 42 40 38 34 28 23 17 9
172 169 172 163 171 175 174 170 168 165 161 153 147 139 127 119 114 110 104 100 98 98 96 97 95 94 90 84 77 73 70 66 58 50 43 38 34 33 33 31 21 13 8 2
175 164 158 176 183 180 179 181 175 170 164 159 154 143 137 129 121 115 111 109 105 103 104 103 101 98 94 88 81 75 69 61 48 40 36 32 29 26 19 12 9 6 3 357
177 184 191 180 178 180 181 187 184 179 176 170 165 160 153 144 133 129 125 118 117 120 119 116 110 104 101 96 83 69 60 52 44 37 32 28 23 16 11 6 2 357 353 353
180 187 187 190 187 187 186 187 190 184 182 179 174 170 166 160 151 142 131 126 127 127 121 117 114 108 104 98 86 66 52 43 35 28 22 18 12 7 2 360 356 353 352 349
175 182 187 194 193 192 195 196 193 191 186 186 183 182 177 173 166 152 140 134 138 144 135 135 133 118 113 105 80 54 40 30 22 16 12 8 4 1 357 354 352 350 348 346
202 203 200 201 194 194 194 194 195 196 196 189 191 189 188 185 180 172 168 166 168 172 164 158 154 144 139 128 79 38 22 12 7 4 2 0 359 355 352 350 348 346 344 343
205 210 209 209 207 202 200 198 198 198 195 198 198 198 191 190 190 193 191 185 178 174 174 174 177 161 154 138 4 8 1 357 354 352 353 353 351 350 349 347 345 344 343 342
204 209 212 212 208 208 207 206 205 201 201 202 199 200 200 200 199 200 200 194 187 191 192 209 214 228 242 287 326 334 334 334 339 346 347 346 346 347 346 343 343 343 342 343
205 209 210 208 208 208 211 215 212 209 206 205 208 210 209 208 206 207 208 212 214 219 224 238 253 259 266 277 296 303 313 327 337 340 342 343 343 342 341 341 342 342 342 343
203 209 210 211 209 210 210 212 215 215 212 212 209 207 210 212 213 213 214 215 222 227 232 240 246 251 258 270 284 296 312 325 332 334 337 338 339 339 339 340 342 341 342 343
206 209 211 211 213 214 215 215 215 215 217 217 216 215 217 218 221 223 228 228 232 230 234 238 241 248 261 274 286 297 310 321 325 330 333 335 336 336 337 340 340 339 340 341
210 212 214 213 214 214 214 215 216 216 216 217 219 220 221 217 216 219 225 230 232 234 235 238 241 251 264 275 286 299 310 317 323 327 329 333 334 334 337 338 338 338 339 339
214 216 216 216 218 219 218 219 217 215 213 212 213 215 216 215 218 223 225 228 232 234 236 240 245 253 263 276 288 299 308 315 321 325 329 331 331 334 337 337 336 336 338 339
216 219 222 225 226 225 223 222 221 220 217 215 215 215 216 216 219 222 223 226 231 234 236 242 248 255 265 277 288 298 307 315 320 325 328 328 331 334 335 335 335 335 337 340
218 223 225 225 225 225 225 226 225 223 222 222 223 221 219 219 220 221 223 226 230 235 242 245 249 256 265 276 288 299 308 315 321 325 326 328 332 333 333 334 334 334 336 339